STARLINK-11130, 59950

Orbit data source: Space-Track

STARLINK-11130, 59950 is a payload satellite owned by SpaceX/Seattle (US) in LEO that was launched on Wed, 05 Jun 2024 UTC via an FALCON 9 launch vehicle from the Air Force Eastern Test Range (AFETR). Payload-class satellites include a variety of spacecraft equipped with specific instruments for various scientific and technological missions. These include communications satellites like Starlink; space stations such as the ISS; scientific satellites like the Hubble; Earth observation satellites from companies like Planet Labs, Umbra, and HawkEye 360; GPS; miniature CubeSats for education and research; and military/defense satellites.

Loading next visibility...
Identifier
59950, 2024-107F
Orbit
LEO
Last TLE update
11 hours ago
Origin
Manufacturer
SpaceX/Seattle
Mission
Operational spacecraft
Bus & Motor
STARLINK V2M, Unknown motor
Mass
730 kg wet, ~700 kg dry
Launch date (UTC)
2024-06-05 (11 months ago)
Launch vehicle
FALCON 9
Launch site
Air Force Eastern Test Range (AFETR)
Object type
Payload
Rocket body
Debris
Shape & HBR
Unknown
Radar Cross Section
Large (>1 m²)

Expand to show TLE details & history

TLE from 11 hours ago
0 STARLINK-11130
1 59950U 24107F   25128.96577593 -.00000365  00000-0  18449-5 0  9997
2 59950  53.1599 313.5889 0000983  27.5573 332.5497 15.69706478 54294
Epoch: 2025-05-08T23:10Z
Definitive object data (Epoch: 2025-05-08T23:10:43.04Z)
Latitude
-0°
Longitude
98.88087°
Altitude
360.064 km
Speed
7.695 km/s
True Right ascension
20h 54m 21s
True Declination
0° 00' 00"
Sunlit
Object was in daylight at TLE epoch
Visualization TLE readout
Latitude
-27.78761°
Longitude
73.59887°
Altitude
367.751 km
Speed
7.689 km/s
Apparent Right ascension
22h 36m 30s
Apparent Declination
-73° 12' 55"
Sunlit
Object is in full shadow
Visualization observer readout
Local Sidereal Time
17:52:51
Azimuth
161.052° S
Elevation
-32.814°
Doppler factor
1
Orbital elements
Apogee altitude
360.66 km
Perigee altitude
359.335 km
Semi-major axis
6,738.135 km
Eccentricity
0.0000983
Inclination
53.1599°
RAAN
313.5889°
Arg. of periapsis
27.5573°
True anomaly
332.54451°
Mean anomaly
332.5497°
Eccentric anomaly
332.5471°
Mean motion
3.92404 °/min
BSTAR
0.0000018449
Orbital period
91.74 mins
Loading maneuver chart data...
Loading SW <> Apogee altitude chart data...
Loading historical data...
Loading historical data...
Loading historical data...
Loading historical data...
Loading historical data...
Loading historical data...
Loading historical data...

STARLINK-11130 Visibility forecast

Observer location: undefined°, undefined°

Span
Click to sort rows by Start time (UTC) header in descending order
Start Az.
Max El. time (UTC)
Max El. Az.
Max El.
End time (UTC)
End Az.
5 mins2025-05-09 14:37:28.632Z207.183° SW2025-05-09 14:40:28.632Z114.369° SE32.777°2025-05-09 14:42:28.632Z65.801° ENE
|